Volver al catálogo

STARLINK-35202

ActivoComunicacionesVLEO
NORAD 65647·PAYLOAD·🇺🇸 United States

Lanzado Sep 18, 2025 desde Cape Canaveral Space Force Station

Loading…

Próximos Pases (próximas 24 horas)

TLE

ActualizadoSource: CelesTrak SupGP

Época: Sep 14, 2026, 21:16 UTC

1 65647C 25210AB  26257.88659722 -.00070818  00000+0 -20918-2 0  2571
2 65647  53.1567 142.2788 0001174  94.3241 223.1439 15.34434152    12

Sigue STARLINK-35202 en tiempo real con AllMySat

Download on the App Store